Location: Squirrel Cove
(50.1074°N, 124.9139°W)
Time: 10:45:54
(UTC-07:00)

NOAA 15 - Visible Passes

Search period start: 16 May 2022 00:00
Search period end: 26 May 2022 00:00
Orbit: 797 x 812 km, 98.6° (Epoch: 16 May)

Date Brightness Start Highest point End Pass type
(mag) Time Alt. Az. Time Alt. Az. Time Alt. Az.
16 May 7.5 21:58:27 10° WSW 22:00:09 11° W 22:01:52 10° WNW visible
20 May 7.5 21:56:59 10° WSW 21:58:52 12° W 22:00:46 10° WNW visible
24 May 7.5 21:55:32 10° WSW 21:57:35 12° W 21:59:38 10° WNW visible
